AZU4087 SBRJ-SBKP

Flight info

Callsign AZU4087
Flight time 1h 3m
Altitude 34000
Route ESORU UZ10 EDMUS
Aircraft E195/M-SDE3GILORVW/S

Departure

Time 2026-04-27 18:17
Airport Santos Dumont Airport (SBRJ)

Arrival

Time 2026-04-27 19:21
Airport Viracopos International Airport (SBKP)
Time Latitude Longitude Altitude Speed Heading
2026-04-27 17:42 -22.91169 -43.16586 21 ft 0 kts 266°
2026-04-27 18:09 -22.91169 -43.16583 21 ft 2 kts 266°
2026-04-27 18:09 -22.91168 -43.16563 23 ft 3 kts 266°
2026-04-27 18:09 -22.91167 -43.16541 24 ft 3 kts 276°
2026-04-27 18:10 -22.91170 -43.16522 24 ft 3 kts 314°
2026-04-27 18:10 -22.91179 -43.16515 24 ft 2 kts 356°
2026-04-27 18:10 -22.91197 -43.16514 21 ft 2 kts 356°
2026-04-27 18:10 -22.91202 -43.16514 21 ft 0 kts 356°
2026-04-27 18:12 -22.91194 -43.16514 21 ft 4 kts 356°
2026-04-27 18:12 -22.91144 -43.16518 24 ft 11 kts 355°
2026-04-27 18:13 -22.91058 -43.16533 21 ft 13 kts 353°
2026-04-27 18:13 -22.90959 -43.16542 23 ft 15 kts 356°
2026-04-27 18:13 -22.90847 -43.16550 21 ft 17 kts 359°
2026-04-27 18:13 -22.90739 -43.16543 21 ft 16 kts 356°
2026-04-27 18:14 -22.90712 -43.16545 22 ft 16 kts 356°
2026-04-27 18:14 -22.90598 -43.16552 23 ft 16 kts 357°
2026-04-27 18:14 -22.90514 -43.16555 21 ft 9 kts 10°
2026-04-27 18:14 -22.90497 -43.16507 21 ft 8 kts 88°
2026-04-27 18:15 -22.90495 -43.16443 22 ft 9 kts 86°
2026-04-27 18:15 -22.90487 -43.16388 25 ft 7 kts 74°
2026-04-27 18:15 -22.90468 -43.16338 23 ft 5 kts 67°
2026-04-27 18:15 -22.90484 -43.16319 23 ft 3 kts 171°
2026-04-27 18:16 -22.90488 -43.16319 23 ft 0 kts 176°
2026-04-27 18:16 -22.90528 -43.16316 23 ft 31 kts 176°
2026-04-27 18:16 -22.91020 -43.16284 21 ft 109 kts 176°
2026-04-27 18:17 -22.91911 -43.16232 403 ft 137 kts 177°
2026-04-27 18:17 -22.92866 -43.15967 1017 ft 150 kts 151°
2026-04-27 18:17 -22.93690 -43.15224 1635 ft 160 kts 136°
2026-04-27 18:17 -22.94458 -43.14269 2174 ft 174 kts 128°
2026-04-27 18:18 -22.95229 -43.13201 2784 ft 186 kts 131°
2026-04-27 18:18 -22.96171 -43.12185 3493 ft 197 kts 143°
2026-04-27 18:18 -22.97284 -43.11243 4219 ft 211 kts 143°
2026-04-27 18:18 -22.98496 -43.10276 5016 ft 221 kts 150°
2026-04-27 18:19 -22.99976 -43.09741 5663 ft 232 kts 180°
2026-04-27 18:19 -23.01559 -43.10074 6373 ft 236 kts 206°
2026-04-27 18:19 -23.02948 -43.11052 7058 ft 241 kts 224°
2026-04-27 18:19 -23.04206 -43.12276 7843 ft 242 kts 226°
2026-04-27 18:20 -23.05397 -43.13529 8759 ft 234 kts 228°
2026-04-27 18:20 -23.06522 -43.14788 9620 ft 237 kts 230°
2026-04-27 18:20 -23.07500 -43.16269 10130 ft 256 kts 250°
2026-04-27 18:20 -23.07703 -43.18245 10628 ft 275 kts 279°
2026-04-27 18:21 -23.07096 -43.20283 11150 ft 299 kts 297°
2026-04-27 18:21 -23.05778 -43.22083 11910 ft 311 kts 316°
2026-04-27 18:21 -23.04076 -43.23570 12891 ft 318 kts 320°
2026-04-27 18:21 -23.02299 -43.25053 13813 ft 325 kts 320°
2026-04-27 18:22 -23.00488 -43.26568 14674 ft 332 kts 321°
2026-04-27 18:22 -22.98583 -43.28066 15689 ft 335 kts 322°
2026-04-27 18:22 -22.96648 -43.29489 16680 ft 338 kts 323°
2026-04-27 18:22 -22.94648 -43.30903 17653 ft 341 kts 325°
2026-04-27 18:23 -22.92628 -43.32269 18580 ft 343 kts 326°
2026-04-27 18:23 -22.90635 -43.33693 19311 ft 344 kts 317°
2026-04-27 18:23 -22.88994 -43.35564 20071 ft 343 kts 309°
2026-04-27 18:23 -22.87417 -43.37532 20758 ft 347 kts 309°
2026-04-27 18:24 -22.85841 -43.39525 21473 ft 349 kts 308°
2026-04-27 18:24 -22.84270 -43.41560 22129 ft 353 kts 308°
2026-04-27 18:24 -22.82696 -43.43634 22753 ft 357 kts 308°
2026-04-27 18:24 -22.81120 -43.45716 23460 ft 359 kts 308°
2026-04-27 18:25 -22.79486 -43.47781 24008 ft 362 kts 310°
2026-04-27 18:25 -22.77788 -43.49816 24516 ft 365 kts 311°
2026-04-27 18:25 -22.76069 -43.51845 25054 ft 367 kts 311°
2026-04-27 18:25 -22.74372 -43.53877 25556 ft 369 kts 310°
2026-04-27 18:26 -22.72731 -43.56030 26016 ft 371 kts 302°
2026-04-27 18:26 -22.71708 -43.58601 26481 ft 375 kts 285°
2026-04-27 18:26 -22.71447 -43.61422 26977 ft 381 kts 270°
2026-04-27 18:26 -22.71703 -43.64296 27446 ft 385 kts 268°
2026-04-27 18:27 -22.71959 -43.67191 27883 ft 388 kts 267°
2026-04-27 18:27 -22.72271 -43.70096 28334 ft 391 kts 265°
2026-04-27 18:27 -22.72686 -43.73029 28763 ft 394 kts 264°
2026-04-27 18:27 -22.73168 -43.75942 29309 ft 393 kts 263°
2026-04-27 18:28 -22.73928 -43.78782 29981 ft 392 kts 255°
2026-04-27 18:28 -22.74844 -43.81559 30374 ft 393 kts 255°
2026-04-27 18:28 -22.75752 -43.84315 30786 ft 392 kts 255°
2026-04-27 18:28 -22.76686 -43.87125 31284 ft 390 kts 255°
2026-04-27 18:29 -22.77598 -43.89882 31693 ft 390 kts 255°
2026-04-27 18:29 -22.78496 -43.92612 32109 ft 389 kts 255°
2026-04-27 18:29 -22.79404 -43.95371 32570 ft 387 kts 255°
2026-04-27 18:29 -22.80314 -43.98116 33018 ft 386 kts 255°
2026-04-27 18:30 -22.81220 -44.00862 33328 ft 387 kts 255°
2026-04-27 18:30 -22.82129 -44.03608 33726 ft 386 kts 255°
2026-04-27 18:30 -22.83021 -44.06319 34144 ft 381 kts 255°
2026-04-27 18:30 -22.83923 -44.09074 34045 ft 393 kts 255°
2026-04-27 18:31 -22.84852 -44.11912 33936 ft 406 kts 255°
2026-04-27 18:31 -22.85809 -44.14820 33991 ft 414 kts 255°
2026-04-27 18:31 -22.87756 -44.20722 33959 ft 415 kts 255°
2026-04-27 18:32 -22.89694 -44.26627 33970 ft 416 kts 255°
2026-04-27 18:32 -22.91626 -44.32528 33968 ft 415 kts 255°
2026-04-27 18:33 -22.93560 -44.38429 33972 ft 415 kts 255°
2026-04-27 18:33 -22.95488 -44.44332 33969 ft 415 kts 255°
2026-04-27 18:34 -22.97415 -44.50233 33980 ft 414 kts 255°
2026-04-27 18:34 -22.99335 -44.56127 33989 ft 414 kts 255°
2026-04-27 18:35 -23.01245 -44.61995 33984 ft 413 kts 255°
2026-04-27 18:35 -23.03105 -44.67881 33991 ft 412 kts 259°
2026-04-27 18:36 -23.04500 -44.73874 33987 ft 408 kts 260°
2026-04-27 18:36 -23.05847 -44.79895 33968 ft 410 kts 261°
2026-04-27 18:37 -23.07190 -44.85918 33988 ft 410 kts 261°
2026-04-27 18:37 -23.08545 -44.91927 33987 ft 410 kts 261°
2026-04-27 18:38 -23.09887 -44.97939 33994 ft 410 kts 261°
2026-04-27 18:38 -23.11234 -45.03959 33992 ft 409 kts 261°
2026-04-27 18:39 -23.12569 -45.09968 33991 ft 410 kts 261°
2026-04-27 18:39 -23.13908 -45.15986 33995 ft 410 kts 261°
2026-04-27 18:40 -23.15242 -45.21996 33977 ft 409 kts 261°
2026-04-27 18:40 -23.16574 -45.28000 33982 ft 409 kts 261°
2026-04-27 18:41 -23.17902 -45.34009 33967 ft 409 kts 261°
2026-04-27 18:41 -23.19231 -45.40016 33974 ft 409 kts 261°
2026-04-27 18:42 -23.20343 -45.45017 33968 ft 409 kts 261°
2026-04-27 18:42 -23.21902 -45.52003 33989 ft 409 kts 261°
2026-04-27 18:43 -23.23266 -45.58051 34008 ft 410 kts 259°
2026-04-27 18:43 -23.24985 -45.63979 33998 ft 411 kts 257°
2026-04-27 18:44 -23.26724 -45.69865 34017 ft 411 kts 258°
2026-04-27 18:44 -23.28348 -45.75841 34019 ft 410 kts 258°
2026-04-27 18:45 -23.29975 -45.81733 33846 ft 405 kts 258°
2026-04-27 18:45 -23.30799 -45.84652 33584 ft 391 kts 258°
2026-04-27 18:45 -23.31576 -45.87405 33169 ft 382 kts 258°
2026-04-27 18:46 -23.32342 -45.90161 32639 ft 377 kts 258°
2026-04-27 18:46 -23.33085 -45.92865 32103 ft 372 kts 259°
2026-04-27 18:46 -23.33822 -45.95558 31646 ft 370 kts 259°
2026-04-27 18:46 -23.34572 -45.98296 31081 ft 381 kts 258°
2026-04-27 18:47 -23.35339 -46.01067 30611 ft 383 kts 258°
2026-04-27 18:47 -23.36111 -46.03852 30063 ft 385 kts 258°
2026-04-27 18:47 -23.36881 -46.06628 29579 ft 383 kts 258°
2026-04-27 18:47 -23.37654 -46.09418 29028 ft 386 kts 258°
2026-04-27 18:48 -23.38437 -46.12210 28569 ft 387 kts 258°
2026-04-27 18:48 -23.39234 -46.15017 28045 ft 385 kts 257°
2026-04-27 18:48 -23.40021 -46.17776 27515 ft 381 kts 257°
2026-04-27 18:48 -23.40799 -46.20513 27074 ft 375 kts 258°
2026-04-27 18:49 -23.41561 -46.23222 26548 ft 372 kts 258°
2026-04-27 18:49 -23.42311 -46.25899 26061 ft 369 kts 258°
2026-04-27 18:49 -23.43058 -46.28564 25611 ft 366 kts 258°
2026-04-27 18:49 -23.43803 -46.31214 25083 ft 365 kts 258°
2026-04-27 18:50 -23.44544 -46.33844 24639 ft 361 kts 258°
2026-04-27 18:50 -23.44976 -46.36514 24112 ft 352 kts 275°
2026-04-27 18:50 -23.44496 -46.39129 23684 ft 345 kts 291°
2026-04-27 18:50 -23.43454 -46.41315 23217 ft 343 kts 302°
2026-04-27 18:51 -23.42143 -46.43478 22734 ft 343 kts 300°
2026-04-27 18:51 -23.40921 -46.45703 22342 ft 341 kts 300°
2026-04-27 18:51 -23.39661 -46.47904 21854 ft 342 kts 302°
2026-04-27 18:51 -23.38315 -46.50022 21404 ft 341 kts 304°
2026-04-27 18:52 -23.36906 -46.52099 20973 ft 339 kts 305°
2026-04-27 18:52 -23.35956 -46.53485 20630 ft 339 kts 305°
2026-04-27 18:52 -23.34585 -46.55518 20234 ft 335 kts 304°
2026-04-27 18:53 -23.31891 -46.59681 19313 ft 334 kts 303°
2026-04-27 18:53 -23.30553 -46.61745 18860 ft 334 kts 304°
2026-04-27 18:53 -23.29152 -46.63757 18423 ft 334 kts 311°
2026-04-27 18:53 -23.27382 -46.65456 17929 ft 334 kts 318°
2026-04-27 18:54 -23.25594 -46.67050 17507 ft 331 kts 318°
2026-04-27 18:54 -23.23815 -46.68639 17060 ft 330 kts 318°
2026-04-27 18:54 -23.22035 -46.70215 16620 ft 329 kts 318°
2026-04-27 18:54 -23.20259 -46.71779 16176 ft 328 kts 319°
2026-04-27 18:55 -23.18491 -46.73334 15728 ft 326 kts 319°
2026-04-27 18:55 -23.16738 -46.74877 15306 ft 323 kts 319°
2026-04-27 18:55 -23.14994 -46.76410 14868 ft 321 kts 319°
2026-04-27 18:55 -23.13270 -46.77923 14447 ft 316 kts 319°
2026-04-27 18:56 -23.11600 -46.79392 14029 ft 312 kts 319°
2026-04-27 18:56 -23.09908 -46.80878 13604 ft 307 kts 319°
2026-04-27 18:56 -23.08256 -46.82326 13222 ft 301 kts 319°
2026-04-27 18:56 -23.06634 -46.83745 12802 ft 297 kts 319°
2026-04-27 18:57 -23.05043 -46.85141 12408 ft 292 kts 318°
2026-04-27 18:57 -23.03691 -46.86704 12022 ft 285 kts 302°
2026-04-27 18:57 -23.02869 -46.88631 11653 ft 282 kts 285°
2026-04-27 18:57 -23.02487 -46.90712 11269 ft 279 kts 281°
2026-04-27 18:58 -23.02131 -46.92764 11002 ft 274 kts 282°
2026-04-27 18:58 -23.01442 -46.94667 10735 ft 273 kts 303°
2026-04-27 18:58 -23.00286 -46.96314 10480 ft 275 kts 307°
2026-04-27 18:58 -22.99100 -46.97938 10264 ft 276 kts 307°
2026-04-27 18:59 -22.97915 -46.99568 10020 ft 274 kts 307°
2026-04-27 18:59 -22.96732 -47.01209 9792 ft 275 kts 307°
2026-04-27 18:59 -22.95552 -47.02831 9585 ft 274 kts 307°
2026-04-27 18:59 -22.94359 -47.04455 9341 ft 274 kts 307°
2026-04-27 19:00 -22.93181 -47.06072 9084 ft 273 kts 307°
2026-04-27 19:00 -22.92004 -47.07687 8764 ft 272 kts 307°
2026-04-27 19:00 -22.90838 -47.09291 8471 ft 270 kts 307°
2026-04-27 19:00 -22.89677 -47.10894 8108 ft 270 kts 307°
2026-04-27 19:01 -22.88512 -47.12493 7744 ft 270 kts 307°
2026-04-27 19:01 -22.87352 -47.14088 7368 ft 268 kts 308°
2026-04-27 19:01 -22.86202 -47.15668 7029 ft 266 kts 308°
2026-04-27 19:01 -22.85062 -47.17239 6663 ft 263 kts 308°
2026-04-27 19:02 -22.83952 -47.18769 6295 ft 251 kts 307°
2026-04-27 19:02 -22.82983 -47.20276 5892 ft 239 kts 294°
2026-04-27 19:02 -22.82773 -47.22002 5594 ft 230 kts 264°
2026-04-27 19:02 -22.83382 -47.23574 5320 ft 227 kts 236°
2026-04-27 19:03 -22.84527 -47.24729 5055 ft 222 kts 223°
2026-04-27 19:03 -22.85742 -47.25751 4760 ft 221 kts 221°
2026-04-27 19:03 -22.86946 -47.26752 4562 ft 215 kts 221°
2026-04-27 19:03 -22.87759 -47.27350 4454 ft 214 kts 211°
2026-04-27 19:04 -22.89680 -47.27690 4308 ft 207 kts 167°
2026-04-27 19:04 -22.90912 -47.26980 4335 ft 197 kts 147°
2026-04-27 19:04 -22.91890 -47.25919 4413 ft 203 kts 128°
2026-04-27 19:04 -22.92715 -47.24624 4391 ft 213 kts 128°
2026-04-27 19:05 -22.93670 -47.23368 4067 ft 216 kts 133°
2026-04-27 19:05 -22.94585 -47.22125 3831 ft 203 kts 128°
2026-04-27 19:05 -22.95409 -47.20924 3547 ft 192 kts 128°
2026-04-27 19:05 -22.96210 -47.19816 3331 ft 182 kts 130°
2026-04-27 19:06 -22.96965 -47.18762 3087 ft 173 kts 130°
2026-04-27 19:06 -22.97670 -47.17767 2888 ft 160 kts 130°
2026-04-27 19:06 -22.98318 -47.16809 2691 ft 157 kts 130°
2026-04-27 19:06 -22.98994 -47.15884 2507 ft 157 kts 130°
2026-04-27 19:07 -22.99663 -47.14945 2240 ft 155 kts 131°
2026-04-27 19:07 -23.00286 -47.14090 2159 ft 131 kts 128°
2026-04-27 19:07 -23.00918 -47.13187 2413 ft 165 kts 129°
2026-04-27 19:07 -23.01658 -47.12153 3239 ft 181 kts 129°
2026-04-27 19:08 -23.02407 -47.11098 4269 ft 179 kts 129°
2026-04-27 19:08 -23.03357 -47.10150 4830 ft 195 kts 159°
2026-04-27 19:08 -23.04683 -47.10057 5577 ft 192 kts 203°
2026-04-27 19:08 -23.05675 -47.10926 6332 ft 186 kts 245°
2026-04-27 19:09 -23.05943 -47.12288 6500 ft 186 kts 278°
2026-04-27 19:09 -23.05645 -47.13633 6536 ft 182 kts 288°
2026-04-27 19:09 -23.05295 -47.14944 6519 ft 180 kts 287°
2026-04-27 19:09 -23.04955 -47.16243 6508 ft 177 kts 287°
2026-04-27 19:10 -23.04625 -47.17517 6529 ft 176 kts 286°
2026-04-27 19:10 -23.04304 -47.18819 6533 ft 180 kts 285°
2026-04-27 19:10 -23.03989 -47.20146 6540 ft 179 kts 287°
2026-04-27 19:10 -23.03746 -47.21002 6550 ft 178 kts 290°
2026-04-27 19:11 -23.03114 -47.22648 6631 ft 180 kts 295°
2026-04-27 19:11 -23.02570 -47.23896 6532 ft 186 kts 295°
2026-04-27 19:11 -23.02296 -47.25230 6479 ft 180 kts 264°
2026-04-27 19:11 -23.02900 -47.26418 6522 ft 192 kts 225°
2026-04-27 19:12 -23.04174 -47.26916 6500 ft 204 kts 184°
2026-04-27 19:12 -23.05579 -47.26548 6536 ft 211 kts 165°
2026-04-27 19:12 -23.06982 -47.26076 6497 ft 212 kts 167°
2026-04-27 19:12 -23.08305 -47.25363 6468 ft 220 kts 138°
2026-04-27 19:13 -23.09092 -47.23919 6457 ft 228 kts 107°
2026-04-27 19:13 -23.09668 -47.22267 6483 ft 243 kts 117°
2026-04-27 19:13 -23.10487 -47.20618 6541 ft 253 kts 118°
2026-04-27 19:13 -23.11325 -47.18911 6520 ft 259 kts 118°
2026-04-27 19:14 -23.12171 -47.17183 6485 ft 258 kts 118°
2026-04-27 19:14 -23.13011 -47.15471 6484 ft 256 kts 118°
2026-04-27 19:14 -23.13852 -47.13764 6479 ft 257 kts 118°
2026-04-27 19:14 -23.14699 -47.12046 6462 ft 259 kts 118°
2026-04-27 19:15 -23.15543 -47.10324 6407 ft 258 kts 118°
2026-04-27 19:15 -23.16361 -47.08625 6398 ft 256 kts 115°
2026-04-27 19:15 -23.16960 -47.06805 6304 ft 258 kts 102°
2026-04-27 19:15 -23.17012 -47.04866 5996 ft 256 kts 72°
2026-04-27 19:16 -23.16173 -47.03233 5830 ft 245 kts 40°
2026-04-27 19:16 -23.15265 -47.02496 5720 ft 241 kts 25°
2026-04-27 19:16 -23.13268 -47.01434 5435 ft 241 kts 21°
2026-04-27 19:16 -23.11768 -47.00651 5120 ft 236 kts 21°
2026-04-27 19:17 -23.10331 -46.99856 4855 ft 227 kts 22°
2026-04-27 19:17 -23.08896 -46.99314 4617 ft 212 kts 360°
2026-04-27 19:17 -23.07545 -46.99694 4406 ft 197 kts 323°
2026-04-27 19:17 -23.06780 -47.00853 4197 ft 191 kts 286°
2026-04-27 19:18 -23.06552 -47.02225 4186 ft 180 kts 282°
2026-04-27 19:18 -23.06297 -47.03513 4023 ft 169 kts 282°
2026-04-27 19:18 -23.06024 -47.04722 3746 ft 159 kts 283°
2026-04-27 19:18 -23.05604 -47.05787 3473 ft 150 kts 301°
2026-04-27 19:19 -23.05044 -47.06746 3330 ft 151 kts 299°
2026-04-27 19:19 -23.04516 -47.07718 3348 ft 150 kts 297°
2026-04-27 19:19 -23.03959 -47.08705 3148 ft 151 kts 299°
2026-04-27 19:19 -23.03395 -47.09639 2873 ft 146 kts 302°
2026-04-27 19:20 -23.02827 -47.10523 2638 ft 140 kts 306°
2026-04-27 19:20 -23.02242 -47.11351 2441 ft 137 kts 306°
2026-04-27 19:20 -23.01666 -47.12150 2202 ft 131 kts 303°
2026-04-27 19:20 -23.01168 -47.12855 2155 ft 99 kts 309°
2026-04-27 19:21 -23.00873 -47.13265 2151 ft 39 kts 307°
2026-04-27 19:21 -23.00772 -47.13454 2153 ft 26 kts 289°
2026-04-27 19:21 -23.00743 -47.13609 2155 ft 18 kts 277°
2026-04-27 19:21 -23.00728 -47.13742 2155 ft 18 kts 283°
2026-04-27 19:22 -23.00671 -47.13863 2150 ft 19 kts 308°
2026-04-27 19:22 -23.00582 -47.13986 2156 ft 23 kts 308°
2026-04-27 19:22 -23.00483 -47.14126 2151 ft 24 kts 307°
2026-04-27 19:22 -23.00380 -47.14271 2150 ft 25 kts 308°
2026-04-27 19:23 -23.00273 -47.14419 2156 ft 24 kts 308°
2026-04-27 19:23 -23.00194 -47.14539 2154 ft 12 kts 283°
2026-04-27 19:23 -23.00211 -47.14581 2154 ft 12 kts 226°
2026-04-27 19:23 -23.00237 -47.14605 2150 ft 13 kts 219°
2026-04-27 19:24 -23.00312 -47.14669 2156 ft 14 kts 218°
2026-04-27 19:24 -23.00370 -47.14727 2153 ft 10 kts 249°
2026-04-27 19:24 -23.00338 -47.14794 2154 ft 11 kts 308°
2026-04-27 19:24 -23.00290 -47.14860 2156 ft 11 kts 308°
2026-04-27 19:25 -23.00256 -47.14915 2155 ft 5 kts 275°
2026-04-27 19:25 -23.00277 -47.14930 2155 ft 4 kts 197°
2026-04-27 19:25 -23.00306 -47.14943 2156 ft 4 kts 211°
2026-04-27 19:25 -23.00322 -47.14956 2152 ft 2 kts 218°
2026-04-27 19:26 -23.00326 -47.14960 2153 ft 0 kts 218°
2026-04-27 19:26 -23.00328 -47.14962 2153 ft 0 kts 218°